Wind_Speed
32 32 32 33 33 33 32 33 34 34 35 34 34 33 32 30 29 28 27 26 24 24 23 23 22 21 20 21 22 23 25 26 27 28 30 30 30 31
33 33 34 34 34 34 33 34 34 35 35 35 34 34 32 30 30 28 27 26 25 24 23 23 22 21 20 21 22 23 24 26 27 28 29 30 30 31
35 35 34 34 34 35 34 35 34 34 35 36 35 34 32 29 28 27 27 26 25 24 23 22 22 21 21 21 22 22 23 25 26 27 28 29 30 31
34 34 34 33 33 34 33 33 33 35 35 35 34 32 31 29 27 27 26 26 24 23 23 22 22 22 22 22 22 23 23 24 25 27 28 28 30 31
31 31 30 31 31 30 30 30 30 30 31 30 30 28 28 27 26 26 25 24 23 22 22 21 21 22 22 22 22 23 23 23 24 25 26 27 28 29
24 24 25 25 25 25 25 25 25 26 26 26 25 25 25 24 24 24 23 23 22 22 21 21 21 21 22 22 23 23 24 24 24 25 25 26 27 28
19 20 19 19 19 20 20 20 21 20 20 20 20 21 21 22 22 22 22 22 22 22 21 20 20 20 21 22 22 23 24 25 26 26 27 28 29 30
17 16 16 16 15 15 16 16 15 15 16 17 17 18 19 20 20 21 21 21 22 21 21 21 20 20 20 21 22 22 23 24 26 27 28 29 31 32
18 18 17 16 15 15 14 13 13 14 14 14 15 16 17 19 20 20 20 20 21 21 21 20 20 19 19 19 19 21 22 23 25 27 29 31 33 34
19 19 18 17 16 15 15 14 14 14 14 14 15 15 16 17 18 18 19 20 20 20 20 19 19 18 19 19 19 20 22 23 24 26 28 30 32 34
17 18 18 18 17 16 15 15 14 14 14 13 13 13 14 15 15 16 17 17 18 18 18 18 18 18 18 19 19 21 22 24 25 27 28 30 32 34
15 16 17 17 17 16 15 14 13 12 12 12 12 12 12 12 12 14 14 15 15 15 15 15 15 16 17 17 19 20 21 23 24 26 28 30 33 35
11 13 15 15 15 15 14 14 14 12 11 10 10 9 9 8 9 9 10 11 12 11 11 11 11 12 13 14 16 17 18 20 22 24 26 29 31 33
7 9 11 13 14 14 14 14 13 11 10 9 8 7 7 6 6 6 6 6 6 6 6 7 7 8 9 11 12 14 16 18 19 21 23 25 27 28
2 6 9 11 13 13 14 13 12 10 10 8 6 5 5 4 4 3 3 3 3 2 2 3 4 5 7 8 10 12 14 16 18 21 23 24 25 26
5 4 7 9 11 12 12 11 11 10 9 8 6 6 5 5 5 5 4 4 3 2 2 3 4 5 7 10 12 14 15 17 19 21 23 24 25 26
12 11 10 11 12 12 11 11 11 10 9 8 7 7 7 7 7 7 6 6 6 6 7 7 7 8 10 11 13 15 16 18 21 22 24 25 27 28
18 17 16 14 14 13 12 12 12 11 10 10 10 9 9 9 8 9 9 9 9 8 8 8 8 9 10 11 13 15 16 18 20 22 24 25 27 28
21 20 19 18 17 16 15 14 14 14 13 13 12 11 11 11 11 11 10 10 9 8 7 7 7 8 9 11 12 14 16 18 20 21 23 25 26 28
23 22 21 20 19 18 18 17 17 16 15 15 14 14 13 13 12 11 10 9 8 6 6 6 7 8 9 11 12 14 16 17 19 21 22 24 25 27
24 23 23 22 21 20 20 19 18 17 16 16 15 14 13 12 11 10 9 7 6 5 5 6 7 8 10 12 13 15 17 18 19 21 22 23 25 26
23 23 22 22 21 20 20 19 18 17 16 15 14 13 12 10 9 8 7 6 5 5 5 7 9 10 12 14 15 17 18 19 20 21 22 23 24 25
20 20 20 19 19 18 18 17 16 15 14 13 12 11 10 9 7 6 5 5 5 5 7 8 10 12 13 15 16 18 19 20 21 22 22 23 23 24
Wind_Direction
260 256 252 250 252 252 254 256 257 258 256 254 254 255 255 257 262 265 267 268 268 269 270 272 273 275 276 275 272 271 270 269 267 266 265 265 266 267
256 257 257 254 253 255 256 256 256 257 255 254 253 254 253 254 258 262 265 265 265 266 267 269 271 272 274 274 274 273 273 272 271 269 268 268 268 269
257 257 258 256 258 258 257 257 256 255 254 254 253 252 251 252 256 259 261 261 261 263 266 269 270 271 273 274 274 274 274 273 272 271 270 270 269 270
256 256 258 258 259 260 259 257 255 254 254 253 253 250 248 249 253 256 258 258 260 262 266 268 269 271 273 274 274 274 275 275 273 271 271 271 271 273
254 255 256 256 256 257 255 252 251 251 252 252 250 248 247 248 251 253 255 257 258 261 266 269 270 272 273 273 275 276 277 278 277 275 274 274 275 275
249 250 250 249 247 247 247 247 248 249 249 248 248 247 247 248 250 252 254 256 258 260 264 269 271 273 273 275 276 276 277 278 278 277 276 276 277 277
253 248 243 242 239 238 240 242 244 245 245 245 245 245 245 247 250 252 255 256 258 260 263 268 272 273 274 276 278 278 277 277 277 276 275 276 277 278
256 253 247 246 244 243 241 240 239 241 240 240 241 243 243 246 248 252 255 256 258 260 264 268 273 273 275 277 276 278 279 278 277 277 277 279 280 281
252 250 247 246 247 246 246 245 244 242 241 240 240 242 245 246 249 251 253 255 257 259 263 268 272 275 277 280 280 282 285 285 283 282 283 282 283 283
249 244 241 241 242 242 241 242 242 243 242 242 241 243 245 246 247 250 253 254 256 259 263 267 271 275 279 284 286 288 290 290 289 289 288 287 287 285
250 244 238 235 235 235 237 239 240 240 240 243 242 244 244 245 247 248 250 253 255 258 263 268 272 276 282 288 292 294 295 296 296 295 294 294 293 291
246 238 234 232 231 231 232 233 233 234 237 238 238 240 242 243 247 249 250 253 255 259 264 270 275 281 288 292 296 299 300 301 301 301 300 299 298 296
245 234 228 224 221 221 223 225 225 226 226 227 231 237 240 240 240 245 252 252 254 257 264 272 280 287 294 299 302 305 307 309 310 310 309 308 306 305
242 227 218 213 210 211 213 216 218 221 218 217 223 229 230 230 232 237 237 239 244 252 264 274 286 298 307 313 318 322 325 328 329 329 328 326 323 321
221 206 202 201 201 200 201 203 204 206 204 203 207 212 204 199 196 194 192 196 207 228 256 290 312 327 340 348 351 352 352 353 354 353 351 349 346 343
75 134 168 177 179 180 181 181 182 185 183 183 180 170 161 155 154 155 151 146 138 120 88 58 46 37 30 24 19 17 14 12 11 10 9 8 6 3
75 92 117 137 148 154 159 160 161 163 162 160 155 149 143 138 135 132 126 119 112 101 92 81 67 53 43 33 27 25 23 21 21 20 18 17 17 16
75 86 97 109 122 129 134 140 143 144 144 141 138 133 130 128 125 121 118 113 109 103 93 80 65 51 40 34 29 26 24 24 23 22 21 20 20 19
75 82 90 98 106 113 119 123 127 129 129 129 128 125 123 121 118 117 115 112 108 100 87 71 54 41 33 28 24 23 21 21 20 19 19 18 17 17
75 81 88 94 99 104 110 114 117 118 119 120 120 117 115 115 115 115 113 110 103 91 74 54 38 29 23 18 16 15 14 15 14 14 14 14 14 14
76 81 85 91 95 99 104 108 112 114 114 114 114 113 113 113 113 112 107 100 91 75 54 35 22 17 14 11 10 9 8 8 7 6 7 7 8 9
76 80 83 87 91 94 98 102 106 108 109 110 111 111 111 111 110 105 97 86 71 53 33 19 13 11 11 10 8 6 5 3 2 1 1 1 2 3
76 80 83 86 89 92 96 99 103 105 107 108 108 107 106 105 101 94 81 66 50 35 24 18 15 13 10 8 5 3 2 0 359 358 358 358 358 358
Height
5816 5817 5818 5819 5821 5823 5824 5826 5828 5829 5830 5832 5834 5835 5837 5838 5839 5839 5840 5841 5841 5841 5841 5841 5840 5840 5840 5839 5839 5840 5840 5840 5841 5842 5842 5843 5843 5843
5807 5808 5809 5811 5812 5814 5816 5817 5818 5820 5821 5823 5825 5827 5828 5830 5831 5833 5834 5834 5835 5835 5835 5835 5835 5835 5834 5834 5834 5834 5835 5835 5835 5835 5836 5836 5836 5836
5798 5799 5800 5802 5804 5805 5807 5808 5809 5811 5813 5814 5816 5818 5820 5822 5824 5826 5827 5828 5829 5830 5830 5830 5830 5829 5829 5829 5829 5829 5829 5829 5829 5829 5829 5829 5829 5829
5789 5790 5792 5793 5795 5797 5798 5799 5801 5802 5804 5806 5808 5810 5812 5814 5817 5819 5821 5822 5823 5824 5824 5824 5824 5824 5824 5823 5823 5823 5822 5822 5822 5822 5822 5822 5821 5821
5780 5782 5783 5785 5786 5788 5789 5791 5793 5794 5796 5798 5800 5802 5805 5807 5810 5812 5814 5816 5817 5818 5819 5819 5819 5818 5818 5818 5817 5817 5817 5816 5816 5815 5815 5814 5814 5813
5772 5774 5776 5777 5779 5780 5782 5784 5786 5787 5789 5792 5794 5796 5799 5801 5804 5806 5808 5810 5811 5812 5813 5813 5813 5813 5812 5812 5812 5811 5811 5810 5809 5809 5808 5808 5807 5806
5766 5767 5769 5771 5772 5774 5775 5777 5779 5782 5784 5786 5789 5791 5793 5796 5798 5800 5802 5804 5806 5807 5808 5808 5808 5807 5807 5806 5805 5805 5804 5804 5803 5802 5801 5801 5800 5799
5761 5762 5763 5765 5766 5768 5770 5772 5774 5777 5779 5781 5784 5786 5788 5791 5793 5795 5797 5799 5800 5802 5802 5803 5802 5802 5801 5800 5799 5799 5798 5797 5796 5795 5795 5794 5792 5791
5754 5756 5758 5759 5761 5763 5765 5768 5770 5772 5775 5777 5779 5782 5784 5786 5788 5790 5792 5793 5795 5796 5797 5797 5797 5796 5796 5795 5794 5793 5792 5791 5790 5789 5787 5786 5784 5782
5747 5749 5752 5754 5756 5759 5762 5764 5766 5768 5771 5773 5775 5777 5779 5781 5783 5785 5787 5788 5790 5791 5792 5793 5792 5792 5792 5791 5789 5788 5787 5786 5784 5782 5780 5778 5775 5773
5741 5743 5746 5749 5751 5754 5757 5760 5762 5765 5767 5769 5771 5773 5775 5777 5779 5781 5782 5784 5785 5786 5787 5788 5788 5788 5787 5787 5785 5784 5782 5780 5778 5775 5773 5770 5767 5763
5735 5737 5740 5743 5746 5750 5753 5756 5759 5761 5764 5766 5768 5770 5772 5773 5775 5777 5778 5780 5781 5782 5783 5784 5784 5784 5784 5782 5781 5779 5777 5774 5771 5768 5765 5761 5758 5754
5730 5732 5735 5738 5742 5745 5749 5752 5755 5758 5761 5763 5765 5767 5769 5770 5772 5773 5775 5776 5778 5779 5780 5781 5781 5780 5780 5779 5777 5775 5772 5769 5766 5762 5758 5753 5749 5744
5726 5728 5730 5734 5738 5742 5745 5749 5752 5755 5758 5761 5763 5765 5766 5768 5769 5771 5772 5774 5775 5776 5777 5778 5778 5777 5777 5775 5773 5771 5768 5764 5760 5756 5752 5747 5742 5736
5724 5725 5728 5731 5735 5739 5743 5747 5750 5753 5756 5759 5761 5763 5765 5766 5768 5770 5771 5772 5773 5774 5775 5775 5775 5775 5774 5772 5770 5767 5764 5761 5756 5752 5747 5742 5736 5731
5724 5724 5726 5729 5733 5737 5741 5745 5749 5752 5755 5758 5760 5762 5764 5766 5768 5769 5770 5771 5772 5773 5774 5774 5774 5773 5772 5770 5768 5765 5762 5758 5754 5749 5744 5739 5734 5728
5726 5727 5728 5731 5734 5738 5742 5745 5749 5752 5755 5758 5760 5762 5764 5766 5768 5769 5770 5771 5772 5773 5773 5774 5773 5772 5771 5769 5767 5764 5760 5757 5752 5748 5744 5739 5733 5728
5732 5732 5733 5735 5738 5741 5744 5747 5750 5753 5756 5759 5761 5763 5765 5767 5768 5770 5771 5772 5773 5774 5774 5774 5773 5772 5771 5769 5766 5763 5760 5756 5752 5748 5744 5739 5734 5728
5740 5739 5740 5741 5743 5745 5748 5750 5753 5756 5758 5760 5763 5765 5766 5768 5770 5771 5772 5773 5774 5775 5775 5774 5774 5772 5771 5768 5766 5763 5760 5756 5753 5749 5744 5740 5735 5729
5748 5748 5748 5748 5749 5751 5753 5755 5757 5759 5761 5763 5765 5767 5769 5770 5772 5773 5774 5775 5775 5776 5775 5775 5774 5772 5771 5769 5766 5763 5760 5756 5753 5749 5745 5740 5736 5731
5757 5756 5756 5756 5756 5757 5758 5760 5762 5764 5765 5767 5769 5770 5772 5773 5774 5775 5776 5776 5777 5776 5776 5775 5774 5772 5770 5768 5765 5762 5759 5756 5753 5749 5745 5741 5736 5731
5765 5764 5763 5763 5763 5764 5765 5766 5767 5769 5770 5771 5773 5774 5775 5776 5777 5777 5777 5778 5777 5777 5776 5775 5774 5772 5770 5767 5765 5762 5759 5756 5752 5748 5744 5740 5735 5730
5772 5771 5770 5770 5770 5770 5771 5772 5772 5773 5774 5775 5776 5777 5777 5778 5778 5779 5779 5778 5778 5777 5776 5775 5773 5771 5769 5767 5764 5761 5758 5754 5751 5747 5743 5738 5734 5729